Flag for Germany Weather past 2 weeks in Düsseldorf, North Rhine-Westphalia, Germany

Now
63 °F

Passing clouds.


Feels Like: 63 °F
Forecast: 52 / 80 °F
Wind: 5 mph from Southwest

Location: Duesseldorf

Current Time: Aug 4, 2015 at 10:49:53 PM

Latest Report: Aug 4, 2015 at 10:20 PM


Visibility: N/A

Pressure: 30.07 "Hg

Humidity: 77%

Dew point: 55 °F

Location of DüsseldorfLocation

Historic Weather in Düsseldorf — Graph

°F

Düsseldorf temperature yesterday

Maximum temperature yesterday: 93 °F (at 3:50 PM)
Minimum temperature yesterday: 59 °F (at 2:50 AM)
Average temperature yesterday: 78 °F

Past Weeks' High & Low Weather Summary

 TemperatureHumidityPressure
High93 °F (Aug 3, 3:50 PM)100% (Jul 26, 5:50 AM)30.15 "Hg (Jul 26, 5:50 AM)
Low45 °F (Jul 31, 4:50 AM)21% (Aug 3, 3:50 PM)29.50 "Hg (Jul 25, 6:50 AM)
Average65 °F66%29.90 "Hg
* Reported Jul 20 9:20 PM — Aug 4 9:20 PM, Düsseldorf, Weather by CustomWeather, © 2015

Note: Actual official high and low records may vary slightly from our data, if they occured in-between our weather recording intervals... More about our weather records

Advertising

Düsseldorf weather history for previous 24 hours

 ConditionsComfort  
Time TempWeatherWind HumidityBarometerVisibility
9:20 PM
Tue, Aug 4
63 °FScattered clouds.6 mph77%30.04 "HgN/A
8:50 PM64 °FPassing clouds.6 mph78%30.04 "HgN/A
8:20 PM66 °FPassing clouds.6 mph73%30.04 "HgN/A
7:50 PM66 °FPassing clouds.6 mph68%30.01 "HgN/A
7:20 PM66 °FPassing clouds.7 mph73%30.04 "HgN/A
6:50 PM66 °FPassing clouds.9 mph73%30.01 "HgN/A
6:20 PM66 °FScattered clouds.7 mph78%30.01 "HgN/A
5:50 PM64 °FScattered clouds.7 mph78%30.01 "HgN/A
5:20 PM63 °FPartly sunny.9 mph88%30.01 "HgN/A
4:50 PM63 °FPartly sunny.8 mph94%30.01 "HgN/A
4:20 PM63 °FLight rain. Partly sunny.10 mph94%30.01 "HgN/A
3:50 PM63 °FLight rain. Partly sunny.13 mph94%29.98 "HgN/A
3:20 PM63 °FSprinkles. Partly sunny.12 mph94%29.95 "Hg4 mi
2:50 PM66 °FRain showers. Broken clouds.10 mph94%29.95 "Hg2 mi
2:20 PM66 °FSprinkles. Broken clouds.9 mph94%29.92 "Hg4 mi
1:50 PM66 °FSprinkles. Broken clouds.9 mph94%29.92 "Hg4 mi
1:20 PM66 °FRain showers. Broken clouds.7 mph88%29.92 "Hg4 mi
12:50 PM66 °FLight rain. Broken clouds.8 mph88%29.92 "HgN/A
12:20 PM66 °FLight rain. More clouds than sun.8 mph88%29.92 "HgN/A
11:50 AM66 °FRain. More clouds than sun.8 mph88%29.92 "HgN/A
11:20 AM68 °FLight rain. Partly sunny.13 mph83%29.92 "HgN/A
10:50 AM72 °FLight rain. Partly sunny.7 mph69%29.86 "HgN/A
10:20 AM72 °FLight rain. Partly sunny.13 mph69%29.86 "HgN/A
9:50 AM73 °FLight rain. Partly sunny.9 mph65%29.86 "HgN/A
9:20 AM72 °FSprinkles. Broken clouds.2 mph73%29.83 "HgN/A
8:50 AM70 °FSprinkles. Broken clouds.5 mph78%29.83 "HgN/A
8:20 AM70 °FSprinkles. Partly sunny.6 mph78%29.86 "HgN/A
7:50 AM70 °FSprinkles. Partly sunny.2 mph73%29.83 "HgN/A
7:20 AM70 °FSprinkles. Partly sunny.9 mph69%29.86 "HgN/A
6:50 AM75 °FSprinkles. Passing clouds.12 mph47%29.80 "HgN/A
6:20 AM75 °FSprinkles. Partly cloudy.13 mph47%29.80 "HgN/A
5:50 AM75 °FScattered showers. Partly cloudy.12 mph47%29.80 "HgN/A
5:20 AM75 °FClear.13 mph44%29.80 "Hg10 mi
4:50 AM75 °FClear.10 mph44%29.80 "Hg10 mi
4:20 AM75 °FClear.10 mph44%29.80 "Hg10 mi
3:50 AM75 °FClear.9 mph47%29.83 "Hg10 mi
3:20 AM75 °FClear.9 mph47%29.83 "Hg10 mi
2:50 AM75 °FClear.9 mph47%29.86 "Hg10 mi
2:20 AM73 °FClear.8 mph50%29.86 "Hg10 mi
1:50 AM75 °FClear.9 mph50%29.86 "Hg10 mi
1:20 AM70 °FClear.6 mph64%29.89 "Hg10 mi
12:50 AM70 °FClear.2 mph64%29.89 "Hg10 mi
12:20 AM73 °FClear.2 mph57%29.89 "Hg10 mi
11:50 PM
Mon, Aug 3
73 °FClear.2 mph57%29.89 "Hg10 mi
11:20 PM75 °FClear.2 mph54%29.89 "Hg10 mi
10:50 PM77 °FClear.7 mph47%29.89 "Hg10 mi
10:20 PM77 °FClear.5 mph47%29.89 "Hg10 mi
Weather by CustomWeather, © 2015

See weather overviewHow to use our weather pages